Overview Statistics Trail Chart Weather Telemetry Raw packets
 

This is the latest recevied weather packets stored in our database for station/object OE6JUE. If no packets are shown the sender has not sent any weather packets the latest 10 day(s).

<< 36 37 38 39 40 41 42 >>
Time Temp. Humidity Pressure Rain* Wind** Luminosity Snow
1788442282 28.89° C 33% 1020.8 hPa 0 mm - - -
1788441982 28.89° C 33% 1020.8 hPa 0 mm - - -
1788441682 28.89° C 33% 1021 hPa 0 mm - - -
1788441381 29.44° C 33% 1020.8 hPa 0 mm - - -
1788441081 30° C 33% 1020.9 hPa 0 mm - - -
1788440781 29.44° C 33% 1020.8 hPa 0 mm - - -
1788440481 30° C 34% 1020.9 hPa 0 mm - - -
1788440182 29.44° C 35% 1020.9 hPa 0 mm - - -
1788439881 28.89° C 35% 1020.9 hPa 0 mm - - -
1788439582 28.89° C 35% 1020.9 hPa 0 mm - - -
1788439282 29.44° C 36% 1020.9 hPa 0 mm - - -
1788438982 28.89° C 34% 1021 hPa 0 mm - - -
1788438681 29.44° C 34% 1021.2 hPa 0 mm - - -
1788438382 28.89° C 33% 1021.2 hPa 0 mm - - -
1788438082 28.89° C 31% 1021.3 hPa 0 mm - - -
1788437781 28.89° C 33% 1021.3 hPa 0 mm - - -
1788437481 29.44° C 36% 1021.2 hPa 0 mm - - -
1788437181 29.44° C 36% 1021.2 hPa 0 mm - - -
1788436881 29.44° C 36% 1021.2 hPa 0 mm - - -
1788436582 29.44° C 37% 1021.3 hPa 0 mm - - -
1788436281 29.44° C 40% 1021.4 hPa 0 mm - - -
1788435981 28.33° C 38% 1021.3 hPa 0 mm - - -
1788435681 28.89° C 37% 1021.4 hPa 0 mm - - -
1788435381 28.89° C 37% 1021.3 hPa 0 mm - - -
1788435081 28.89° C 38% 1021.4 hPa 0 mm - - -

* Rain latest hour (hover to see other rain measurements)
** Current wind speed in m/s (hover to see current wind gust speed)